TimeCDT,TemperatureF,Dew PointF,Humidity,Sea Level PressureIn,VisibilityMPH,Wind Direction,Wind SpeedMPH,Gust SpeedMPH,PrecipitationIn,Events,Conditions,WindDirDegrees,DateUTC
12:54 AM,50.0,21.0,32,29.51,10.0,West,17.3,-,N/A,,Clear,270,2012-10-18 05:54:00
1:54 AM,51.1,19.9,29,29.50,10.0,West,18.4,-,N/A,,Clear,280,2012-10-18 06:54:00
2:54 AM,51.1,21.0,31,29.50,10.0,WNW,15.0,24.2,N/A,,Clear,290,2012-10-18 07:54:00
3:54 AM,48.9,23.0,36,29.49,10.0,WNW,15.0,-,N/A,,Clear,290,2012-10-18 08:54:00
4:54 AM,48.9,26.1,41,29.49,10.0,WNW,15.0,20.7,N/A,,Mostly Cloudy,290,2012-10-18 09:54:00
5:54 AM,50.0,28.9,44,29.48,10.0,WNW,23.0,32.2,N/A,,Overcast,290,2012-10-18 10:54:00
6:54 AM,50.0,30.9,48,29.48,10.0,WNW,18.4,32.2,N/A,,Overcast,300,2012-10-18 11:54:00
7:54 AM,51.1,28.9,43,29.47,10.0,WNW,25.3,35.7,N/A,,Overcast,300,2012-10-18 12:54:00
8:54 AM,50.0,30.9,48,29.47,6.0,WNW,34.5,47.2,0.00,,Haze,300,2012-10-18 13:54:00
9:54 AM,51.1,30.0,44,29.47,8.0,WNW,39.1,48.3,N/A,,Overcast,300,2012-10-18 14:54:00
10:54 AM,48.0,35.1,61,29.47,7.0,WNW,31.1,44.9,0.00,Rain,Light Rain,300,2012-10-18 15:54:00
11:54 AM,46.0,39.0,76,29.47,4.0,West,27.6,38.0,0.02,Rain,Light Rain,280,2012-10-18 16:54:00
12:46 PM,46.4,39.2,76,29.47,3.0,West,28.8,41.4,0.05,Rain,Light Rain,280,2012-10-18 17:46:00
12:54 PM,46.0,39.9,79,29.46,3.0,West,26.5,40.3,0.05,Rain,Light Rain,280,2012-10-18 17:54:00
1:41 PM,46.4,39.2,76,29.46,3.0,WNW,27.6,39.1,0.06,Rain,Light Rain,290,2012-10-18 18:41:00
1:51 PM,46.4,41.0,81,29.46,2.5,WNW,26.5,39.1,0.07,Rain,Light Rain,290,2012-10-18 18:51:00
1:54 PM,46.9,41.0,80,29.45,3.0,WNW,26.5,36.8,0.07,Rain,Light Rain,290,2012-10-18 18:54:00
2:35 PM,46.4,41.0,81,29.46,4.0,WNW,25.3,46.0,0.04,Rain,Light Rain,300,2012-10-18 19:35:00
2:52 PM,46.4,41.0,81,29.45,3.0,WNW,32.2,44.9,0.06,Rain,Light Rain,300,2012-10-18 19:52:00
2:54 PM,46.9,39.9,77,29.45,4.0,WNW,35.7,50.6,0.06,Rain,Light Rain,300,2012-10-18 19:54:00
3:20 PM,46.4,41.0,81,29.46,4.0,WNW,33.4,46.0,0.01,Rain,Light Rain,300,2012-10-18 20:20:00
3:34 PM,46.4,39.2,76,29.46,2.5,WNW,32.2,48.3,0.02,Rain,Light Rain,300,2012-10-18 20:34:00
3:45 PM,46.4,41.0,81,29.47,3.0,WNW,33.4,47.2,0.03,Rain,Light Rain,290,2012-10-18 20:45:00
3:54 PM,46.0,41.0,83,29.47,8.0,WNW,31.1,50.6,0.03,Rain,Light Rain,300,2012-10-18 20:54:00
4:17 PM,46.4,42.8,87,29.48,4.0,NW,35.7,47.2,0.00,Rain,Light Rain,310,2012-10-18 21:17:00
4:32 PM,46.4,42.8,87,29.49,2.5,WNW,25.3,44.9,0.01,Rain,Light Rain,300,2012-10-18 21:32:00
4:42 PM,46.4,41.0,81,29.50,4.0,NW,33.4,52.9,0.02,Rain,Light Rain,310,2012-10-18 21:42:00
4:54 PM,46.9,41.0,80,29.50,6.0,NW,31.1,49.5,0.02,Rain,Light Rain,310,2012-10-18 21:54:00
5:44 PM,46.4,41.0,81,29.54,6.0,NW,34.5,43.7,0.02,Rain,Light Rain,310,2012-10-18 22:44:00
5:54 PM,46.9,41.0,80,29.53,7.0,NW,31.1,46.0,0.03,Rain,Light Rain,310,2012-10-18 22:54:00
6:54 PM,46.0,41.0,83,29.56,8.0,NW,33.4,40.3,0.02,Rain,Light Rain,310,2012-10-18 23:54:00
7:05 PM,46.4,39.2,76,29.57,7.0,NW,31.1,46.0,0.00,Rain,Light Rain,310,2012-10-19 00:05:00
7:54 PM,46.0,39.9,79,29.59,10.0,NW,26.5,36.8,0.02,Rain,Light Rain,310,2012-10-19 00:54:00
8:45 PM,46.4,39.2,76,29.60,6.0,NW,24.2,39.1,0.01,Rain,Light Rain,310,2012-10-19 01:45:00
8:52 PM,46.4,41.0,81,29.60,6.0,NW,21.9,34.5,0.01,Rain,Light Rain,310,2012-10-19 01:52:00
8:54 PM,46.0,41.0,83,29.60,6.0,NW,25.3,32.2,0.01,Rain,Light Rain,310,2012-10-19 01:54:00
9:04 PM,46.4,39.2,76,29.60,6.0,NW,26.5,38.0,0.00,Rain,Light Rain,310,2012-10-19 02:04:00
9:12 PM,46.4,41.0,81,29.60,6.0,NW,23.0,36.8,0.01,Rain,Light Rain,310,2012-10-19 02:12:00
10:29 PM,46.4,41.0,81,29.60,6.0,NW,28.8,38.0,0.02,Rain,Light Rain,310,2012-10-19 03:29:00
10:54 PM,46.0,41.0,83,29.60,5.0,NW,24.2,35.7,0.04,Rain,Light Rain,310,2012-10-19 03:54:00
11:44 PM,46.4,41.0,81,29.60,8.0,NW,29.9,38.0,0.01,Rain,Light Rain,310,2012-10-19 04:44:00
11:54 PM,45.0,39.9,82,29.60,8.0,NW,29.9,44.9,0.02,Rain,Light Rain,310,2012-10-19 04:54:00